30-09-2023, 00:00:05,    255,    0.0,   10.1,   0.00,   0.00, 1021.1,    0.5, -999.0
30-09-2023, 00:00:15,    255,    0.8,   10.2,   0.00,   0.00, 1021.2,    0.6, -999.0
30-09-2023, 00:00:25,    255,    0.0,   10.1,   0.00,   0.00, 1021.1,    0.5, -999.0
30-09-2023, 00:00:35,    255,    0.0,   10.1,   0.00,   0.00, 1021.1,    0.3, -999.0
30-09-2023, 00:00:45,    257,    0.0,   10.1,   0.00,   0.00, 1021.1,    0.5, -999.0
30-09-2023, 00:00:55,    256,    0.0,   10.1,   0.00,   0.00, 1021.1,    0.4, -999.0
30-09-2023, 00:01:05,    255,    0.0,   10.1,   0.00,   0.00, 1021.1,    0.4, -999.0
30-09-2023, 00:01:15,    256,    0.0,   10.1,   0.00,   0.00, 1021.1,    0.4, -999.0
30-09-2023, 00:01:25,    256,    0.0,   10.1,   0.00,   0.00, 1021.1,    0.5, -999.0
30-09-2023, 00:01:35,    256,    0.0,   10.1,   0.00,   0.00, 1021.1,    0.7, -999.0
30-09-2023, 00:01:45,    255,    0.0,   10.1,   0.00,   0.00, 1021.1,    0.5, -999.0
30-09-2023, 00:01:55,    255,    0.0,   10.1,   0.00,   0.00, 1021.1,    0.6, -999.0
30-09-2023, 00:02:04,    255,    0.0,   10.1,   0.00,   0.00, 1021.1,    0.6, -999.0
30-09-2023, 00:02:15,    255,    0.0,   10.1,   0.00,   0.00, 1021.1,    0.3, -999.0
30-09-2023, 00:02:25,    256,    0.0,   10.1,   0.00,   0.00, 1021.1,    0.4, -999.0
30-09-2023, 00:02:34,    256,    0.0,   10.1,   0.00,   0.00, 1021.1,    0.7, -999.0
30-09-2023, 00:02:44,    256,    0.0,   10.0,   0.00,   0.00, 1021.1,    0.4, -999.0
30-09-2023, 00:02:55,    255,    0.0,   10.1,   0.00,   0.00, 1021.1,    0.6, -999.0
30-09-2023, 00:03:06,    255,    0.0,   10.1,   0.00,   0.00, 1021.1,    0.3, -999.0
30-09-2023, 00:03:14,    255,    0.0,   10.0,   0.00,   0.00, 1021.1,    0.4, -999.0
30-09-2023, 00:03:25,    255,    0.0,   10.0,   0.00,   0.00, 1021.1,    0.5, -999.0
30-09-2023, 00:03:35,    256,    0.0,   10.1,   0.00,   0.00, 1021.2,    0.5, -999.0
30-09-2023, 00:03:44,    255,    0.0,   10.1,   0.00,   0.00, 1021.2,    0.5, -999.0
30-09-2023, 00:03:54,    256,    0.0,   10.1,   0.00,   0.00, 1021.1,    0.8, -999.0
30-09-2023, 00:04:05,    255,    0.0,   10.1,   0.00,   0.00, 1021.2,    0.7, -999.0
30-09-2023, 00:04:14,    255,    0.0,   10.1,   0.00,   0.00, 1021.2,    0.6, -999.0
30-09-2023, 00:04:24,    255,    0.0,   10.1,   0.00,   0.00, 1021.2,    0.3, -999.0
30-09-2023, 00:04:34,    255,    0.0,   10.1,   0.00,   0.00, 1021.2,    0.6, -999.0
30-09-2023, 00:04:45,    255,    0.0,   10.1,   0.00,   0.00, 1021.2,    0.5, -999.0
30-09-2023, 00:04:54,    256,    0.0,   10.1,   0.00,   0.00, 1021.2,    0.4, -999.0
30-09-2023, 00:05:04,    255,    0.0,   10.1,   0.00,   0.00, 1021.2,    0.6, -999.0
30-09-2023, 00:05:14,    255,    0.0,   10.1,   0.00,   0.00, 1021.2,    0.4, -999.0
30-09-2023, 00:05:24,    255,    0.0,   10.1,   0.00,   0.00, 1021.2,    0.6, -999.0
30-09-2023, 00:05:34,    255,    0.0,   10.1,   0.00,   0.00, 1021.2,    0.6, -999.0
30-09-2023, 00:05:44,    255,    0.0,   10.1,   0.00,   0.00, 1021.2,    0.5, -999.0
30-09-2023, 00:05:54,    255,    0.0,   10.1,   0.00,   0.00, 1021.2,    0.4, -999.0
30-09-2023, 00:06:04,    255,    0.0,   10.1,   0.00,   0.00, 1021.2,    0.4, -999.0
30-09-2023, 00:06:14,    255,    0.0,   10.1,   0.00,   0.00, 1021.2,    0.5, -999.0
30-09-2023, 00:06:24,    256,    0.0,   10.1,   0.00,   0.00, 1021.2,    0.3, -999.0
30-09-2023, 00:06:34,    255,    0.0,   10.1,   0.00,   0.00, 1021.2,    0.3, -999.0
30-09-2023, 00:06:44,    255,    0.0,   10.1,   0.00,   0.00, 1021.2,    0.4, -999.0
30-09-2023, 00:06:54,    255,    0.0,   10.1,   0.00,   0.00, 1021.2,    0.3, -999.0
30-09-2023, 00:07:04,    255,    0.0,   10.1,   0.00,   0.00, 1021.2,    0.4, -999.0
30-09-2023, 00:07:14,    255,    0.0,   10.0,   0.00,   0.00, 1021.2,    0.2, -999.0
30-09-2023, 00:07:24,    255,    0.1,   10.1,   0.00,   0.00, 1021.2,    0.5, -999.0
30-09-2023, 00:07:34,    255,    0.0,   10.0,   0.00,   0.00, 1021.2,    0.4, -999.0
30-09-2023, 00:07:44,    255,    0.0,   10.0,   0.00,   0.00, 1021.2,    0.4, -999.0
30-09-2023, 00:07:54,    255,    0.0,   10.1,   0.00,   0.00, 1021.2,    0.5, -999.0
30-09-2023, 00:08:04,    255,    0.0,   10.0,   0.00,   0.00, 1021.2,    0.5, -999.0
30-09-2023, 00:08:14,    255,    0.0,   10.0,   0.00,   0.00, 1021.2,    0.4, -999.0
30-09-2023, 00:08:24,    255,    0.0,   10.0,   0.00,   0.00, 1021.2,    0.7, -999.0
30-09-2023, 00:08:34,    255,    0.0,   10.1,   0.00,   0.00, 1021.2,    0.5, -999.0
30-09-2023, 00:08:44,    255,    0.0,   10.0,   0.00,   0.00, 1021.2,    0.5, -999.0
30-09-2023, 00:08:54,    255,    0.0,   10.0,   0.00,   0.00, 1021.2,    0.5, -999.0
30-09-2023, 00:09:04,    255,    0.0,   10.1,   0.00,   0.00, 1021.2,    0.4, -999.0
30-09-2023, 00:09:14,    255,    0.0,   10.0,   0.00,   0.00, 1021.2,    0.5, -999.0
30-09-2023, 00:09:24,    255,    0.0,   10.0,   0.00,   0.00, 1021.2,    0.5, -999.0
30-09-2023, 00:09:34,    254,    0.0,   10.0,   0.00,   0.00, 1021.2,    0.5, -999.0
30-09-2023, 00:09:43,    255,    0.0,   10.1,   0.00,   0.00, 1021.2,    0.5, -999.0
30-09-2023, 00:09:54,    255,    0.0,   10.1,   0.00,   0.00, 1021.2,    0.4, -999.0
30-09-2023, 00:10:04,    255,    0.0,   10.1,   0.00,   0.00, 1021.2,    0.5, -999.0
30-09-2023, 00:10:13,    255,    0.0,   10.0,   0.00,   0.00, 1021.2,    0.2, -999.0
30-09-2023, 00:10:23,    255,    0.0,   10.0,   0.00,   0.00, 1021.2,    0.6, -999.0
30-09-2023, 00:10:34,    255,    0.0,   10.0,   0.00,   0.00, 1021.2,    0.7, -999.0
30-09-2023, 00:10:43,    255,    0.0,   10.1,   0.00,   0.00, 1021.2,    0.5, -999.0
30-09-2023, 00:10:53,    255,    0.0,   10.0,   0.00,   0.00, 1021.2,    0.4, -999.0
30-09-2023, 00:11:04,    255,    0.0,   10.0,   0.00,   0.00, 1021.2,    0.4, -999.0
30-09-2023, 00:11:13,    255,    0.0,   10.0,   0.00,   0.00, 1021.3,    0.3, -999.0
30-09-2023, 00:11:23,    255,    0.0,   10.0,   0.00,   0.00, 1021.2,    0.4, -999.0
30-09-2023, 00:11:33,    255,    0.0,   10.0,   0.00,   0.00, 1021.3,    0.5, -999.0
30-09-2023, 00:11:44,    255,    0.0,   10.1,   0.00,   0.00, 1021.2,    0.6, -999.0
30-09-2023, 00:11:53,    255,    0.0,   10.0,   0.00,   0.00, 1021.3,    0.5, -999.0
30-09-2023, 00:12:03,    255,    0.0,   10.0,   0.00,   0.00, 1021.3,    0.4, -999.0
30-09-2023, 00:12:13,    255,    0.0,   10.0,   0.00,   0.00, 1021.3,    0.3, -999.0
30-09-2023, 00:12:23,    255,    0.0,   10.1,   0.00,   0.00, 1021.3,    0.4, -999.0
30-09-2023, 00:12:33,    255,    0.0,   10.0,   0.00,   0.00, 1021.3,    0.6, -999.0
30-09-2023, 00:12:43,    255,    0.0,   10.0,   0.00,   0.00, 1021.3,    0.5, -999.0
30-09-2023, 00:12:53,    255,    0.0,   10.0,   0.00,   0.00, 1021.3,    0.3, -999.0
30-09-2023, 00:13:03,    255,    0.0,   10.0,   0.00,   0.00, 1021.3,    0.3, -999.0
30-09-2023, 00:13:13,    255,    0.0,   10.0,   0.00,   0.00, 1021.4,    0.3, -999.0
30-09-2023, 00:13:23,    255,    0.0,   10.0,   0.00,   0.00, 1021.4,    0.7, -999.0
30-09-2023, 00:13:33,    255,    0.0,   10.0,   0.00,   0.00, 1021.3,    0.6, -999.0
30-09-2023, 00:13:43,    255,    0.0,   10.0,   0.00,   0.00, 1021.3,    0.4, -999.0
30-09-2023, 00:13:53,    255,    0.0,   10.1,   0.00,   0.00, 1021.4,    0.5, -999.0
30-09-2023, 00:14:03,    255,    0.0,   10.0,   0.00,   0.00, 1021.4,    0.5, -999.0
30-09-2023, 00:14:13,    255,    0.0,   10.0,   0.00,   0.00, 1021.4,    0.7, -999.0
30-09-2023, 00:14:23,    255,    0.0,   10.0,   0.00,   0.00, 1021.4,    0.5, -999.0
30-09-2023, 00:14:33,    255,    0.0,   10.0,   0.00,   0.00, 1021.4,    0.2, -999.0
30-09-2023, 00:14:43,    255,    0.0,   10.1,   0.00,   0.00, 1021.4,    0.7, -999.0
30-09-2023, 00:14:53,    255,    0.0,   10.1,   0.00,   0.00, 1021.4,    0.7, -999.0
30-09-2023, 00:15:03,    255,    0.0,   10.0,   0.00,   0.00, 1021.4,    0.5, -999.0
30-09-2023, 00:15:13,    255,    0.0,   10.0,   0.00,   0.00, 1021.4,    0.3, -999.0
30-09-2023, 00:15:23,    255,    0.0,   10.1,   0.00,   0.00, 1021.4,    0.6, -999.0
30-09-2023, 00:15:33,    256,    0.0,   10.0,   0.00,   0.00, 1021.3,    0.4, -999.0
30-09-2023, 00:15:43,    256,    0.0,   10.0,   0.00,   0.00, 1021.3,    0.5, -999.0
30-09-2023, 00:15:53,    256,    0.0,   10.0,   0.00,   0.00, 1021.3,    0.7, -999.0
30-09-2023, 00:16:03,    256,    0.0,   10.0,   0.00,   0.00, 1021.3,    0.4, -999.0
30-09-2023, 00:16:13,    256,    0.0,   10.0,   0.00,   0.00, 1021.4,    0.4, -999.0
30-09-2023, 00:16:23,    256,    0.0,   10.0,   0.00,   0.00, 1021.3,    0.5, -999.0
30-09-2023, 00:16:33,    256,    0.0,   10.0,   0.00,   0.00, 1021.3,    0.4, -999.0
30-09-2023, 00:16:42,    256,    0.0,   10.0,   0.00,   0.00, 1021.4,    0.3, -999.0
30-09-2023, 00:16:53,    255,    0.6,   10.0,   0.00,   0.00, 1021.4,    0.6, -999.0
30-09-2023, 00:17:03,    255,    0.5,   10.1,   0.00,   0.00, 1021.4,    0.5, -999.0
30-09-2023, 00:17:12,    254,    0.4,   10.1,   0.00,   0.00, 1021.4,    0.5, -999.0
30-09-2023, 00:17:22,    254,    0.2,   10.1,   0.00,   0.00, 1021.4,    0.4, -999.0
30-09-2023, 00:17:33,    254,    0.0,   10.0,   0.00,   0.00, 1021.3,    0.6, -999.0
30-09-2023, 00:17:43,    254,    0.0,    9.9,   0.00,   0.00, 1021.3,    0.4, -999.0
30-09-2023, 00:17:52,    257,    0.0,   10.0,   0.00,   0.00, 1021.3,    0.6, -999.0
30-09-2023, 00:18:02,    257,    0.6,   10.0,   0.00,   0.00, 1021.4,    0.4, -999.0
30-09-2023, 00:18:13,    257,    0.7,   10.1,   0.00,   0.00, 1021.4,    0.6, -999.0
30-09-2023, 00:18:22,    258,    0.2,   10.1,   0.00,   0.00, 1021.4,    0.7, -999.0
30-09-2023, 00:18:32,    257,    0.2,   10.0,   0.00,   0.00, 1021.4,    0.4, -999.0
30-09-2023, 00:18:42,    256,    0.0,    9.9,   0.00,   0.00, 1021.3,    0.5, -999.0
30-09-2023, 00:18:52,    257,    0.2,   10.0,   0.00,   0.00, 1021.4,    0.7, -999.0
30-09-2023, 00:19:02,    257,    0.3,   10.1,   0.00,   0.00, 1021.4,    0.6, -999.0
30-09-2023, 00:19:12,    257,    0.0,    9.9,   0.00,   0.00, 1021.3,    0.4, -999.0
30-09-2023, 00:19:22,    257,    0.0,    9.9,   0.00,   0.00, 1021.3,    0.2, -999.0
30-09-2023, 00:19:32,    256,    0.0,   10.0,   0.00,   0.00, 1021.3,    0.0, -999.0
30-09-2023, 00:19:42,    257,    0.3,   10.0,   0.00,   0.00, 1021.3,    0.4, -999.0
30-09-2023, 00:19:52,    257,    0.9,   10.1,   0.00,   0.00, 1021.4,    0.8, -999.0
30-09-2023, 00:20:02,    258,    0.1,   10.0,   0.00,   0.00, 1021.3,    0.3, -999.0
30-09-2023, 00:20:12,    257,    0.0,   10.0,   0.00,   0.00, 1021.2,    0.5, -999.0
30-09-2023, 00:20:22,    257,    0.0,   10.0,   0.00,   0.00, 1021.2,    0.7, -999.0
30-09-2023, 00:20:32,    258,    0.0,   10.0,   0.00,   0.00, 1021.2,    0.5, -999.0
30-09-2023, 00:20:42,    257,    0.0,    9.9,   0.00,   0.00, 1021.3,    0.4, -999.0
30-09-2023, 00:20:52,    257,    0.0,    9.9,   0.00,   0.00, 1021.3,    0.5, -999.0
30-09-2023, 00:21:02,    258,    0.0,   10.0,   0.00,   0.00, 1021.2,    0.4, -999.0
30-09-2023, 00:21:12,    258,    0.0,   10.0,   0.00,   0.00, 1021.2,    0.6, -999.0
30-09-2023, 00:21:22,    258,    0.0,   10.0,   0.00,   0.00, 1021.2,    0.6, -999.0
30-09-2023, 00:21:32,    258,    0.0,   10.0,   0.00,   0.00, 1021.2,    1.0, -999.0
30-09-2023, 00:21:42,    257,    0.1,   10.1,   0.00,   0.00, 1021.2,    0.7, -999.0
30-09-2023, 00:21:52,    257,    0.2,   10.0,   0.00,   0.00, 1021.3,    0.5, -999.0
30-09-2023, 00:22:02,    257,    0.0,   10.0,   0.00,   0.00, 1021.2,    0.6, -999.0
30-09-2023, 00:22:12,    256,    0.0,   10.0,   0.00,   0.00, 1021.2,    0.4, -999.0
30-09-2023, 00:22:22,    256,    0.0,   10.0,   0.00,   0.00, 1021.2,    0.5, -999.0
30-09-2023, 00:22:32,    256,    0.0,   10.0,   0.00,   0.00, 1021.2,    0.4, -999.0
30-09-2023, 00:22:42,    257,    0.0,   10.0,   0.00,   0.00, 1021.2,    0.4, -999.0
30-09-2023, 00:22:52,    256,    0.0,   10.0,   0.00,   0.00, 1021.2,    0.7, -999.0
30-09-2023, 00:23:02,    256,    0.0,   10.0,   0.00,   0.00, 1021.2,    0.5, -999.0
30-09-2023, 00:23:12,    256,    0.0,   10.0,   0.00,   0.00, 1021.2,    0.5, -999.0
30-09-2023, 00:23:22,    256,    0.0,   10.0,   0.00,   0.00, 1021.3,    0.4, -999.0
30-09-2023, 00:23:32,    256,    0.0,   10.0,   0.00,   0.00, 1021.2,    0.4, -999.0
30-09-2023, 00:23:42,    256,    0.0,   10.0,   0.00,   0.00, 1021.2,    0.4, -999.0
30-09-2023, 00:23:51,    256,    0.0,   10.0,   0.00,   0.00, 1021.2,    0.4, -999.0
30-09-2023, 00:24:02,    256,    0.0,   10.0,   0.00,   0.00, 1021.2,    0.5, -999.0
30-09-2023, 00:24:12,    256,    0.0,   10.0,   0.00,   0.00, 1021.2,    0.5, -999.0
30-09-2023, 00:24:21,    256,    0.0,   10.0,   0.00,   0.00, 1021.2,    0.4, -999.0
30-09-2023, 00:24:31,    256,    0.0,   10.0,   0.00,   0.00, 1021.2,    0.7, -999.0
30-09-2023, 00:24:42,    256,    0.0,   10.0,   0.00,   0.00, 1021.2,    0.2, -999.0
30-09-2023, 00:24:51,    256,    0.0,   10.0,   0.00,   0.00, 1021.2,    0.7, -999.0
30-09-2023, 00:25:01,    256,    0.0,    9.9,   0.00,   0.00, 1021.2,    0.3, -999.0
30-09-2023, 00:25:11,    256,    0.0,    9.9,   0.00,   0.00, 1021.2,    0.7, -999.0
30-09-2023, 00:25:22,    256,    0.0,   10.0,   0.00,   0.00, 1021.2,    0.5, -999.0
30-09-2023, 00:25:31,    256,    0.0,   10.0,   0.00,   0.00, 1021.2,    0.3, -999.0
30-09-2023, 00:25:41,    256,    0.0,   10.0,   0.00,   0.00, 1021.2,    0.3, -999.0
30-09-2023, 00:25:51,    256,    0.0,   10.0,   0.00,   0.00, 1021.2,    0.4, -999.0
30-09-2023, 00:26:01,    256,    0.0,   10.0,   0.00,   0.00, 1021.3,    0.4, -999.0
30-09-2023, 00:26:11,    254,    0.0,   10.0,   0.00,   0.00, 1021.3,    0.7, -999.0
30-09-2023, 00:26:21,    257,    0.0,    9.9,   0.00,   0.00, 1021.3,    0.4, -999.0
30-09-2023, 00:26:31,    257,    0.0,   10.0,   0.00,   0.00, 1021.3,    0.7, -999.0
30-09-2023, 00:26:41,    256,    0.0,   10.0,   0.00,   0.00, 1021.3,    0.2, -999.0
30-09-2023, 00:26:51,    256,    0.0,   10.0,   0.00,   0.00, 1021.3,    0.7, -999.0
30-09-2023, 00:27:01,    256,    0.0,   10.0,   0.00,   0.00, 1021.3,    0.2, -999.0
30-09-2023, 00:27:11,    256,    0.0,   10.0,   0.00,   0.00, 1021.3,    0.2, -999.0
30-09-2023, 00:27:21,    256,    0.0,   10.0,   0.00,   0.00, 1021.3,    0.9, -999.0
30-09-2023, 00:27:31,    256,    0.0,    9.9,   0.00,   0.00, 1021.3,    0.9, -999.0
30-09-2023, 00:27:41,    256,    0.0,    9.9,   0.00,   0.00, 1021.3,    0.6, -999.0
30-09-2023, 00:27:51,    256,    0.0,   10.0,   0.00,   0.00, 1021.3,    0.6, -999.0
30-09-2023, 00:28:01,    256,    0.0,   10.0,   0.00,   0.00, 1021.3,    0.6, -999.0
30-09-2023, 00:28:11,    256,    0.0,   10.0,   0.00,   0.00, 1021.3,    0.4, -999.0
30-09-2023, 00:28:21,    256,    0.0,   10.0,   0.00,   0.00, 1021.3,    0.2, -999.0
30-09-2023, 00:28:31,    256,    0.0,   10.0,   0.00,   0.00, 1021.4,    0.7, -999.0
30-09-2023, 00:28:41,    255,    0.0,   10.0,   0.00,   0.00, 1021.4,    0.7, -999.0
30-09-2023, 00:28:51,    256,    0.0,   10.0,   0.00,   0.00, 1021.3,    0.3, -999.0
30-09-2023, 00:29:01,    256,    0.0,   10.0,   0.00,   0.00, 1021.3,    1.0, -999.0
30-09-2023, 00:29:11,    255,    0.0,   10.0,   0.00,   0.00, 1021.4,    0.4, -999.0
30-09-2023, 00:29:21,    255,    0.0,    9.9,   0.00,   0.00, 1021.4,    1.0, -999.0
30-09-2023, 00:29:31,    255,    0.0,    9.9,   0.00,   0.00, 1021.3,    0.3, -999.0
30-09-2023, 00:29:41,    253,    0.0,   10.1,   0.00,   0.00, 1021.3,    0.6, -999.0
30-09-2023, 00:29:51,    255,    0.0,   10.1,   0.00,   0.00, 1021.4,    0.7, -999.0
30-09-2023, 00:30:01,    255,    0.0,   10.0,   0.00,   0.00, 1021.3,    0.3, -999.0
30-09-2023, 00:30:11,    255,    0.0,   10.0,   0.00,   0.00, 1021.4,    0.6, -999.0
30-09-2023, 00:30:21,    256,    0.0,   10.1,   0.00,   0.00, 1021.4,    0.1, -999.0
30-09-2023, 00:30:31,    257,    0.8,   10.1,   0.00,   0.00, 1021.5,    0.5, -999.0
30-09-2023, 00:30:41,    256,    0.1,   10.1,   0.00,   0.00, 1021.4,    0.5, -999.0
30-09-2023, 00:30:51,    255,    0.0,   10.0,   0.00,   0.00, 1021.4,    0.5, -999.0
30-09-2023, 00:31:00,    255,    0.0,   10.0,   0.00,   0.00, 1021.4,    0.6, -999.0
30-09-2023, 00:31:11,    255,    0.0,   10.0,   0.00,   0.00, 1021.4,    0.2, -999.0
30-09-2023, 00:31:21,    255,    0.0,   10.0,   0.00,   0.00, 1021.3,    0.5, -999.0
30-09-2023, 00:31:30,    255,    0.2,   10.0,   0.00,   0.00, 1021.5,    0.7, -999.0
30-09-2023, 00:31:40,    257,    0.4,   10.1,   0.00,   0.00, 1021.4,    0.3, -999.0
30-09-2023, 00:31:51,    256,    0.0,   10.0,   0.00,   0.00, 1021.4,    0.4, -999.0
30-09-2023, 00:32:01,    256,    0.0,   10.0,   0.00,   0.00, 1021.4,    0.6, -999.0
30-09-2023, 00:32:10,    256,    0.0,   10.0,   0.00,   0.00, 1021.4,    0.4, -999.0
30-09-2023, 00:32:20,    256,    0.0,   10.0,   0.00,   0.00, 1021.4,    0.7, -999.0
30-09-2023, 00:32:31,    256,    0.0,   10.0,   0.00,   0.00, 1021.4,    0.5, -999.0
30-09-2023, 00:32:40,    268,    0.4,   10.0,   0.00,   0.00, 1021.5,    0.6, -999.0
30-09-2023, 00:32:50,    268,    0.0,   10.0,   0.00,   0.00, 1021.4,    0.6, -999.0
30-09-2023, 00:33:02,    268,    0.7,   10.0,   0.00,   0.00, 1021.4,    0.5, -999.0
30-09-2023, 00:33:10,    270,    0.9,   10.1,   0.00,   0.00, 1021.5,    0.4, -999.0
30-09-2023, 00:33:20,    270,    0.3,   10.0,   0.00,   0.00, 1021.4,    0.5, -999.0
30-09-2023, 00:33:30,    270,    0.1,   10.0,   0.00,   0.00, 1021.4,    0.4, -999.0
30-09-2023, 00:33:40,    272,    1.3,   10.0,   0.00,   0.00, 1021.5,    0.3, -999.0
30-09-2023, 00:33:50,    272,    0.1,   10.0,   0.00,   0.00, 1021.4,    0.5, -999.0
30-09-2023, 00:34:00,    262,    0.3,   10.0,   0.00,   0.00, 1021.4,    0.2, -999.0
30-09-2023, 00:34:10,    261,    0.5,   10.0,   0.00,   0.00, 1021.4,    0.5, -999.0
30-09-2023, 00:34:20,    261,    0.0,    9.9,   0.00,   0.00, 1021.3,    0.6, -999.0
30-09-2023, 00:34:30,    261,    0.0,    9.9,   0.00,   0.00, 1021.3,    0.5, -999.0
30-09-2023, 00:34:40,    260,    0.0,    9.9,   0.00,   0.00, 1021.3,    0.5, -999.0
30-09-2023, 00:34:50,    260,    0.0,   10.0,   0.00,   0.00, 1021.3,    0.6, -999.0
30-09-2023, 00:35:00,    260,    0.0,    9.9,   0.00,   0.00, 1021.3,    0.4, -999.0
30-09-2023, 00:35:10,    263,    0.0,    9.9,   0.00,   0.00, 1021.3,    0.5, -999.0
30-09-2023, 00:35:20,    264,    0.0,   10.0,   0.00,   0.00, 1021.3,    0.4, -999.0
30-09-2023, 00:35:30,    264,    0.0,   10.0,   0.00,   0.00, 1021.3,    0.5, -999.0
30-09-2023, 00:35:40,    264,    0.0,   10.0,   0.00,   0.00, 1021.3,    0.4, -999.0
30-09-2023, 00:35:50,    285,    0.9,   10.0,   0.00,   0.00, 1021.4,    0.5, -999.0
30-09-2023, 00:36:00,    285,    0.5,   10.1,   0.00,   0.00, 1021.4,    0.4, -999.0
30-09-2023, 00:36:10,    284,    0.2,    9.9,   0.00,   0.00, 1021.4,    0.5, -999.0
30-09-2023, 00:36:20,    285,    0.0,    9.9,   0.00,   0.00, 1021.3,    0.4, -999.0
30-09-2023, 00:36:30,    285,    0.0,   10.0,   0.00,   0.00, 1021.2,    0.5, -999.0
30-09-2023, 00:36:40,    285,    0.0,   10.0,   0.00,   0.00, 1021.3,    0.7, -999.0
30-09-2023, 00:36:50,    285,    0.0,   10.0,   0.00,   0.00, 1021.3,    0.3, -999.0
30-09-2023, 00:37:00,    285,    0.0,    9.8,   0.00,   0.00, 1021.3,    0.5, -999.0
30-09-2023, 00:37:10,    285,    0.0,    9.9,   0.00,   0.00, 1021.3,    0.4, -999.0
30-09-2023, 00:37:20,    285,    0.0,    9.9,   0.00,   0.00, 1021.3,    0.6, -999.0
30-09-2023, 00:37:30,    287,    0.1,    9.9,   0.00,   0.00, 1021.3,    0.5, -999.0
30-09-2023, 00:37:40,    285,    0.5,   10.0,   0.00,   0.00, 1021.5,    0.7, -999.0
30-09-2023, 00:37:50,    284,    0.0,    9.9,   0.00,   0.00, 1021.3,    0.6, -999.0
30-09-2023, 00:38:00,    284,    0.1,    9.9,   0.00,   0.00, 1021.3,    0.6, -999.0
30-09-2023, 00:38:09,    284,    0.0,    9.9,   0.00,   0.00, 1021.3,    0.5, -999.0
30-09-2023, 00:38:20,    284,    0.0,    9.9,   0.00,   0.00, 1021.3,    0.6, -999.0
30-09-2023, 00:38:30,    286,    0.0,    9.9,   0.00,   0.00, 1021.3,    0.4, -999.0
30-09-2023, 00:38:39,    285,    0.0,    9.9,   0.00,   0.00, 1021.3,    0.4, -999.0
30-09-2023, 00:38:49,    284,    0.0,    9.9,   0.00,   0.00, 1021.3,    0.5, -999.0
30-09-2023, 00:39:00,    284,    0.0,    9.9,   0.00,   0.00, 1021.3,    0.5, -999.0
30-09-2023, 00:39:10,    285,    0.0,    9.9,   0.00,   0.00, 1021.3,    0.4, -999.0
30-09-2023, 00:39:19,    284,    0.0,    9.9,   0.00,   0.00, 1021.3,    0.5, -999.0
30-09-2023, 00:39:29,    284,    0.0,    9.9,   0.00,   0.00, 1021.3,    0.5, -999.0
30-09-2023, 00:39:40,    284,    0.0,    9.9,   0.00,   0.00, 1021.3,    0.4, -999.0
30-09-2023, 00:39:49,    285,    0.0,    9.9,   0.00,   0.00, 1021.3,    0.4, -999.0
30-09-2023, 00:39:59,    285,    0.0,    9.8,   0.00,   0.00, 1021.3,    0.6, -999.0
30-09-2023, 00:40:09,    285,    0.0,    9.9,   0.00,   0.00, 1021.3,    0.4, -999.0
30-09-2023, 00:40:19,    284,    0.1,    9.9,   0.00,   0.00, 1021.3,    0.6, -999.0
30-09-2023, 00:40:29,    284,    0.7,   10.0,   0.00,   0.00, 1021.4,    0.8, -999.0
30-09-2023, 00:40:39,    284,    0.3,    9.9,   0.00,   0.00, 1021.4,    0.4, -999.0
30-09-2023, 00:40:49,    284,    0.0,    9.9,   0.00,   0.00, 1021.3,    0.5, -999.0
30-09-2023, 00:40:59,    284,    0.0,    9.8,   0.00,   0.00, 1021.3,    0.5, -999.0
30-09-2023, 00:41:09,    284,    0.0,    9.8,   0.00,   0.00, 1021.3,    0.3, -999.0
30-09-2023, 00:41:19,    284,    0.1,    9.9,   0.00,   0.00, 1021.3,    0.4, -999.0
30-09-2023, 00:41:29,    284,    0.5,   10.0,   0.00,   0.00, 1021.5,    0.6, -999.0
30-09-2023, 00:41:39,    284,    0.0,    9.9,   0.00,   0.00, 1021.3,    0.7, -999.0
30-09-2023, 00:41:49,    284,    0.0,    9.8,   0.00,   0.00, 1021.3,    0.4, -999.0
30-09-2023, 00:41:59,    284,    0.0,    9.8,   0.00,   0.00, 1021.3,    0.6, -999.0
30-09-2023, 00:42:09,    284,    0.0,    9.9,   0.00,   0.00, 1021.3,    0.4, -999.0
30-09-2023, 00:42:19,    284,    0.0,    9.9,   0.00,   0.00, 1021.3,    0.6, -999.0
30-09-2023, 00:42:29,    284,    0.0,    9.9,   0.00,   0.00, 1021.3,    0.5, -999.0
30-09-2023, 00:42:39,    284,    0.1,    9.9,   0.00,   0.00, 1021.4,    0.5, -999.0
30-09-2023, 00:42:49,    282,    0.0,    9.9,   0.00,   0.00, 1021.3,    0.4, -999.0
30-09-2023, 00:42:59,    284,    0.0,    9.8,   0.00,   0.00, 1021.3,    0.3, -999.0
30-09-2023, 00:43:09,    284,    0.0,    9.9,   0.00,   0.00, 1021.3,    0.3, -999.0
30-09-2023, 00:43:19,    284,    0.0,    9.8,   0.00,   0.00, 1021.3,    0.4, -999.0
30-09-2023, 00:43:29,    284,    0.0,    9.9,   0.00,   0.00, 1021.3,    0.5, -999.0
30-09-2023, 00:43:39,    284,    0.0,   10.0,   0.00,   0.00, 1021.4,    0.3, -999.0
30-09-2023, 00:43:49,    283,    0.0,    9.9,   0.00,   0.00, 1021.3,    0.4, -999.0
30-09-2023, 00:43:59,    284,    0.0,    9.9,   0.00,   0.00, 1021.3,    0.3, -999.0
30-09-2023, 00:44:09,    284,    0.0,    9.9,   0.00,   0.00, 1021.3,    0.5, -999.0
30-09-2023, 00:44:19,    284,    0.0,    9.9,   0.00,   0.00, 1021.4,    1.0, -999.0
30-09-2023, 00:44:29,    284,    0.0,    9.9,   0.00,   0.00, 1021.4,    1.0, -999.0
30-09-2023, 00:44:38,    284,    0.0,    9.9,   0.00,   0.00, 1021.4,    0.9, -999.0
30-09-2023, 00:44:49,    284,    0.0,    9.9,   0.00,   0.00, 1021.4,    0.3, -999.0
30-09-2023, 00:44:59,    284,    0.0,    9.9,   0.00,   0.00, 1021.4,    0.7, -999.0
30-09-2023, 00:45:09,    284,    0.0,    9.8,   0.00,   0.00, 1021.4,    0.3, -999.0
30-09-2023, 00:45:18,    284,    0.0,    9.9,   0.00,   0.00, 1021.4,    0.3, -999.0
30-09-2023, 00:45:29,    283,    0.0,    9.9,   0.00,   0.00, 1021.4,    0.5, -999.0
30-09-2023, 00:45:39,    283,    0.0,    9.9,   0.00,   0.00, 1021.4,    0.1, -999.0
30-09-2023, 00:45:48,    284,    0.0,    9.8,   0.00,   0.00, 1021.4,    0.9, -999.0
30-09-2023, 00:45:58,    284,    0.0,    9.9,   0.00,   0.00, 1021.4,    0.5, -999.0
30-09-2023, 00:46:09,    284,    0.0,    9.9,   0.00,   0.00, 1021.4,    0.1, -999.0
30-09-2023, 00:46:18,    283,    0.0,    9.9,   0.00,   0.00, 1021.4,    0.8, -999.0
30-09-2023, 00:46:28,    284,    0.0,    9.9,   0.00,   0.00, 1021.4,    0.3, -999.0
30-09-2023, 00:46:38,    284,    0.0,    9.9,   0.00,   0.00, 1021.4,    0.2, -999.0
30-09-2023, 00:46:49,    284,    0.0,    9.9,   0.00,   0.00, 1021.4,    0.7, -999.0